Location: Basses Si�yes
(44.0835°N, 6.2037°E)
Time: 11:46:37
(UTC+00:00)

Lacrosse 4 Rocket - Pass Details

Date: 27 February 2020
Orbit: 537 x 622 km, 68.0° (Epoch: 08 April)

Event Time Altitude Azimuth Distance (km) Brightness Sun altitude
Rises 17:42:20 0° 265° (W) 2,778 8.0 -4.8°
Reaches altitude 10° 17:45:53 10° 297° (WNW) 1,907 5.1 -5.4°
Maximum altitude 17:47:37 12° 321° (NW) 1,780 4.4 -5.7°
Drops below altitude 10° 17:49:23 10° 345° (NNW) 1,933 4.2 -6.1°
Sets 17:53:03 0° 16° (NNE) 2,862 4.8 -6.7°
